Location: Lourdes
(43.1000°N, 0.0500°W)
Time: 01:41:31
(UTC+00:00)

Cosmos 773 Rocket - Pass Details

Date: 20 April 2021
Orbit: 745 x 777 km, 74.1° (Epoch: 10 May)

Event Time Altitude Azimuth Distance (km) Brightness Sun altitude
Rises 00:20:39 0° 345° (NNW) 3,258 8.1 -35.2°
Reaches altitude 10° 00:23:09 10° 352° (N) 2,331 7.2 -35.1°
Enters shadow 00:26:35 34° 22° (NNE) 1,275 5.5 -35.0°
